This is the latest recevied weather packets stored in our database for station/object HS5NMF. If no packets are shown the sender has not sent any weather packets the latest 10 day(s).
| Time | Temp. | Humidity | Pressure | Rain* | Wind** | Luminosity | Snow |
|---|---|---|---|---|---|---|---|
| 1777686802 | 35.56° C | 54% | 979 hPa | - | - | 0 W/m² | - |
| 1777686478 | 35.56° C | 57% | 979 hPa | - | - | 0 W/m² | - |
| 1777686154 | 35° C | 58% | 979 hPa | - | - | 0 W/m² | - |
| 1777685830 | 35° C | 58% | 979 hPa | - | - | 0 W/m² | - |
| 1777685505 | 34.44° C | 59% | 979 hPa | - | - | 0 W/m² | - |
| 1777685182 | 34.44° C | 60% | 979 hPa | - | - | 0 W/m² | - |
| 1777684859 | 34.44° C | 60% | 979 hPa | - | - | 0 W/m² | - |
| 1777684535 | 33.89° C | 61% | 979 hPa | - | - | 0 W/m² | - |
| 1777684213 | 33.33° C | 62% | 979 hPa | - | - | 0 W/m² | - |
| 1777683890 | 33.89° C | 62% | 979 hPa | - | - | 0 W/m² | - |
| 1777683564 | 33.33° C | 64% | 979 hPa | - | - | 0 W/m² | - |
| 1777683241 | 33.33° C | 65% | 979 hPa | - | - | 0 W/m² | - |
| 1777682917 | 33.33° C | 66% | 979 hPa | - | - | 0 W/m² | - |
| 1777682592 | 32.78° C | 67% | 979 hPa | - | - | 0 W/m² | - |
| 1777682269 | 32.22° C | 68% | 979 hPa | - | - | 0 W/m² | - |
| 1777681943 | 32.22° C | 70% | 978 hPa | - | - | 0 W/m² | - |
| 1777681619 | 32.22° C | 70% | 978 hPa | - | - | 0 W/m² | - |
| 1777681296 | 31.67° C | 70% | 978 hPa | - | - | 0 W/m² | - |
| 1777680974 | 31.67° C | 70% | 978 hPa | - | - | 0 W/m² | - |
| 1777680651 | 31.11° C | 73% | 978 hPa | - | - | 0 W/m² | - |
| 1777680325 | 30° C | 77% | 978 hPa | - | - | 0 W/m² | - |
| 1777680001 | 30° C | 79% | 978 hPa | - | - | 0 W/m² | - |
| 1777679677 | 30° C | 79% | 978 hPa | - | - | 0 W/m² | - |
| 1777679355 | 29.44° C | 81% | 978 hPa | - | - | 0 W/m² | - |
| 1777679029 | 28.89° C | 86% | 978 hPa | - | - | 0 W/m² | - |
* Rain since midnight (hover to see other rain measurements)
** Current wind speed in m/s (hover to see current wind gust speed)